Location: Unspecified
(51.5147°N, 7.4673°E)
Time: 06:44:44
(UTC+01:00)

Transit 4A - Pass Details

Date: 22 February 2026
Orbit: 863 x 978 km, 66.8° (Epoch: 14 March)

Event Time Altitude Azimuth Distance (km) Brightness Sun altitude
Exits shadow 05:37:59 26° 293° (WNW) 1,721 8.8 -18.2°
Maximum altitude 05:40:06 32° 329° (NNW) 1,514 8.8 -17.8°
Drops below altitude 10° 05:45:34 10° 32° (NNE) 2,646 10.8 -17.0°
Sets 05:48:27 0° 42° (NE) 3,611 11.7 -16.5°
